Wetbulb
45.38 44.17 42.43 41.27 40.88 40.56 39.88 39.44 38.81 38.66 38.31 37.61 37.55 37.27 37.18 37.18 37.66 37.34 37.26 37.17 35.86 34.96 35.06 34.35 33.52 33.71 32.98 32.52 32.22 31.64 30.66 29.63 26.09 27.63 27.98 29.04 28.87 29.30 30.49 31.13 31.53 31.14 31.67
40.93 40.00 39.71 39.40 39.16 38.63 38.31 38.53 38.61 37.70 37.91 37.66 37.64 37.24 37.01 36.84 36.84 36.18 35.20 34.94 33.90 32.68 32.39 32.07 31.55 32.53 31.27 31.32 30.62 29.86 29.32 29.33 27.61 25.48 28.91 29.70 28.71 29.67 29.30 28.51 29.34 29.73 29.43
37.77 37.02 36.51 36.11 36.08 36.02 36.32 36.43 36.13 35.32 34.53 34.35 33.93 33.45 33.37 34.05 33.31 33.07 32.36 31.91 31.72 31.70 31.70 31.16 30.95 30.86 30.25 30.40 30.16 29.63 29.72 30.75 29.31 27.66 26.85 28.74 28.28 28.40 27.68 28.43 28.31 28.70 28.74
36.14 35.55 34.85 34.75 34.50 34.03 33.79 33.55 33.40 33.46 32.90 32.55 32.57 32.29 32.25 32.28 32.07 31.99 31.95 31.66 31.60 31.38 31.45 31.12 30.52 29.80 29.88 30.06 30.44 30.10 30.48 29.51 29.19 28.09 27.61 27.34 28.07 29.17 28.30 26.30 26.53 28.75 28.16
33.91 33.36 32.84 33.17 33.05 32.55 32.02 31.83 31.88 31.56 30.73 30.40 30.05 31.08 31.61 31.70 31.91 31.02 30.61 29.84 29.35 28.84 29.03 29.83 29.04 27.97 28.62 28.82 28.17 27.36 27.94 27.42 26.85 26.42 25.73 25.75 25.44 25.43 24.92 26.41 25.43 26.11 26.98
31.34 31.09 31.57 31.13 30.56 30.00 29.91 29.40 28.11 27.14 27.25 27.45 27.22 26.82 27.23 30.27 31.53 31.46 29.60 27.72 27.35 26.12 25.37 25.93 24.87 24.74 25.97 27.03 27.22 27.89 27.28 24.83 23.90 22.85 21.85 19.89 19.82 19.56 20.45 19.98 20.34 19.90 18.59
28.54 28.95 29.23 29.21 28.45 28.13 27.58 26.36 24.55 23.95 24.24 23.72 24.13 25.05 24.66 25.67 28.58 27.69 26.82 25.12 24.41 23.13 22.31 21.77 22.34 23.10 23.69 23.15 23.55 23.71 23.72 24.58 23.83 19.49 16.08 16.05 15.43 17.00 16.59 15.30 15.45 15.28 14.91
24.72 25.40 26.36 26.20 26.07 25.03 23.57 22.24 21.71 21.76 21.19 21.05 21.16 22.89 23.80 25.29 26.88 26.26 24.90 22.60 22.13 21.42 20.14 19.39 20.38 20.31 21.95 21.78 19.29 17.90 18.67 19.50 19.10 17.99 16.57 15.64 16.58 16.79 15.43 15.13 13.95 12.85 12.58
20.90 21.13 21.95 22.13 21.34 21.31 20.76 20.46 20.38 19.97 19.76 19.65 20.17 20.19 20.73 23.07 26.28 24.90 22.62 20.83 19.82 19.29 18.85 18.03 18.57 19.12 21.92 22.67 16.43 14.21 15.01 15.88 17.67 17.44 17.00 17.40 17.58 16.89 16.40 11.34 6.51 3.47 1.25
19.45 19.75 20.07 20.17 19.45 18.48 18.80 18.40 19.28 19.48 19.13 19.21 18.76 18.67 19.35 19.67 25.24 24.70 21.69 19.97 17.05 16.71 16.07 15.67 17.72 19.43 20.50 20.43 14.76 12.44 11.63 12.63 9.62 9.05 8.90 10.29 11.46 11.13 12.73 9.22 5.38 0.64 0.50
19.53 19.26 19.03 18.92 18.21 18.00 17.50 17.25 16.95 16.57 16.25 16.08 16.72 16.99 17.11 18.20 19.93 23.67 22.99 17.88 16.52 14.72 13.50 11.82 12.84 18.97 18.48 17.91 16.27 12.26 12.69 11.78 6.52 4.50 3.93 4.12 5.14 5.51 5.66 5.99 5.54 3.56 0.56
16.14 16.13 16.69 16.89 17.78 17.53 15.95 16.09 15.31 14.42 13.27 13.26 13.06 14.35 16.12 16.71 20.18 21.20 21.78 20.27 19.54 13.70 11.93 11.08 11.30 16.35 15.50 14.41 11.87 14.35 13.36 7.75 2.50 0.68 -0.57 -0.14 0.79 1.20 2.43 3.27 4.11 4.06 4.66
12.65 12.01 13.14 14.21 16.18 16.62 14.90 14.96 13.90 13.31 11.81 11.32 11.31 10.50 12.54 15.29 16.07 19.55 19.53 18.82 17.34 13.92 12.97 11.52 12.38 12.36 11.35 8.26 9.70 10.63 4.95 0.93 -0.60 -2.77 -2.70 -1.59 -0.08 1.07 1.86 1.65 2.27 2.29 2.30
9.29 9.83 10.09 9.61 10.64 12.08 14.49 14.36 13.78 13.46 11.15 11.04 9.93 8.93 9.70 13.48 14.85 15.37 15.61 13.67 14.47 13.03 7.12 2.59 7.55 7.24 6.67 6.42 1.30 2.30 0.85 -0.14 -1.81 -2.65 -2.54 -1.59 -0.67 -0.80 -0.84 0.46 -1.02 -0.68 -1.51
7.78 7.89 7.49 7.60 6.79 6.76 8.89 13.36 12.77 14.40 15.78 9.97 5.45 9.01 8.67 11.22 14.88 17.87 16.73 13.61 11.01 12.58 0.95 -2.86 -4.49 -3.98 -3.43 -2.98 -2.84 -2.98 -2.59 -2.61 -3.55 -2.92 -3.89 -4.15 -3.26 -2.15 -2.11 -0.52 -1.12 -1.99 -3.54
6.04 5.56 5.09 4.96 4.44 4.65 3.86 3.90 13.65 15.82 16.36 16.52 17.40 14.35 11.71 16.21 18.66 17.92 17.17 16.05 12.94 12.87 -8.50 -11.35 -9.44 -6.98 -6.50 -5.79 -6.00 -5.90 -4.98 -5.13 -4.84 -5.11 -5.43 -4.72 -4.29 -3.64 -3.19 -2.24 -1.79 -2.84 -3.59
0.88 1.89 1.67 1.88 0.99 -0.19 -0.72 -1.76 -3.18 1.14 10.35 12.13 13.12 14.13 14.36 14.49 16.84 15.98 14.93 12.66 8.58 3.81 -18.42 -19.15 -11.65 -8.52 -7.96 -6.99 -6.90 -7.07 -7.75 -6.16 -5.92 -6.55 -6.09 -5.47 -4.29 -3.63 -3.52 -3.80 -3.46 -3.12 -4.02
-4.91 -3.76 -4.25 -5.35 -5.99 -6.80 -6.84 -8.03 -10.87 -10.97 -8.74 -3.93 2.82 8.75 10.83 12.41 14.64 13.00 11.83 3.72 -7.08 -8.31 -19.74 -16.34 -10.87 -9.49 -8.86 -8.68 -8.37 -8.41 -8.02 -7.68 -7.87 -7.36 -6.88 -6.04 -4.64 -4.26 -4.22 -4.74 -4.23 -5.28 -5.58
-3.69 -6.11 -10.88 -12.07 -11.66 -11.16 -11.90 -12.13 -14.02 -13.95 -12.40 -11.64 -9.76 0.81 1.44 10.05 10.27 7.89 6.25 -15.54 -16.35 -10.21 -10.06 -10.84 -10.52 -10.26 -9.79 -9.31 -8.96 -8.75 -8.94 -9.50 -8.94 -8.20 -7.16 -6.28 -4.79 -3.70 -4.43 -4.58 -4.71 -5.34 -6.06
-13.47 -3.57 -11.39 -16.35 -16.65 -15.90 -14.75 -15.00 -12.14 -11.53 -12.17 -11.24 -6.58 -5.19 -4.63 0.62 -4.72 -6.42 -6.98 -9.15 -10.26 -10.41 -10.24 -10.86 -10.92 -10.74 -10.21 -9.58 -9.17 -9.06 -10.11 -10.46 -9.77 -8.65 -7.62 -6.11 -4.53 -3.08 -4.77 -5.56 -6.22 -7.53 -8.03
-17.95 -17.42 -11.16 -18.64 -19.94 -20.29 -20.67 -19.61 -19.07 -21.13 -16.22 -10.48 -9.70 -8.56 9.56 -4.77 -8.41 -10.02 -9.18 -9.39 -11.00 -10.81 -10.52 -10.74 -11.67 -11.50 -10.78 -9.88 -9.73 -10.42 -11.06 -10.73 -9.70 -8.31 -6.98 -6.10 -4.38 -4.52 -5.36 -6.49 -7.44 -8.06 -9.07
-19.36 -19.96 -21.58 -21.00 -20.60 -18.80 -18.73 -20.72 -20.53 -19.41 -17.24 -14.38 -8.32 -8.93 4.41 -12.01 -11.40 -9.44 -9.44 -9.35 -9.45 -16.70 -14.17 -13.08 -12.04 -11.88 -10.82 -9.79 -9.35 -10.01 -10.91 -10.90 -9.46 -7.31 -6.93 -6.41 -3.52 -5.62 -7.50 -8.68 -9.28 -9.39 -9.95
-20.33 -20.29 -19.89 -20.64 -21.07 -16.81 -14.35 -19.79 -21.13 -18.05 -15.64 -14.30 -12.53 -10.27 -8.82 -8.71 -8.85 -9.25 -9.62 -9.52 -8.83 -8.96 -11.02 -13.00 -12.57 -12.29 -10.49 -9.91 -9.26 -8.87 -9.74 -9.41 -7.56 -6.22 -6.94 -3.37 -4.74 -7.03 -8.38 -10.67 -10.50 -11.14 -10.70
-21.22 -21.28 -19.96 -19.07 -19.64 -17.67 -18.59 -14.35 -13.81 -14.21 -14.02 -11.75 -11.50 -11.26 -9.44 -8.91 -9.08 -9.20 -9.12 -8.87 -8.81 -9.24 -9.18 -10.28 -10.92 -12.16 -12.01 -11.56 -10.37 -9.16 -8.04 -6.50 -4.28 -2.78 -1.15 -3.44 -7.59 -8.83 -9.85 -9.91 -9.75 -11.79 -11.88
-22.27 -20.67 -20.41 -19.67 -19.98 -17.62 -16.75 -15.61 -14.23 -15.25 -14.87 -14.10 -10.65 -9.73 -9.03 -9.43 -9.38 -9.69 -9.74 -9.38 -9.46 -10.10 -10.63 -10.84 -10.68 -11.77 -11.27 -11.98 -12.42 -11.45 -8.18 -3.54 -0.69 2.88 -4.05 -9.42 -13.67 -12.18 -11.61 -11.11 -10.52 -12.41 -12.82
-20.91 -20.73 -21.58 -21.97 -18.96 -20.88 -21.99 -16.64 -15.30 -14.52 -12.62 -10.52 -10.72 -10.54 -11.86 -10.69 -10.34 -10.93 -10.98 -10.96 -10.47 -10.91 -12.73 -11.52 -11.43 -12.36 -12.56 -11.57 -11.38 -6.44 -2.49 2.73 6.42 1.05 -8.28 -13.19 -11.94 -9.37 -9.79 -11.50 -12.69 -13.92 -13.84
MSLP
1009.02 1009.29 1009.56 1010.50 1010.87 1011.29 1011.90 1012.55 1012.71 1013.11 1013.66 1013.73 1013.99 1014.40 1014.54 1015.12 1016.10 1015.79 1015.94 1016.66 1016.90 1018.22 1018.71 1019.09 1019.51 1019.47 1019.13 1019.59 1019.69 1019.88 1019.79 1019.97 1019.79 1019.01 1018.35 1017.66 1017.31 1017.43 1017.10 1016.53 1016.08 1015.60 1015.07
1010.07 1010.66 1011.38 1012.25 1012.71 1012.93 1013.62 1014.14 1014.31 1014.35 1014.92 1015.18 1015.24 1015.69 1016.19 1016.35 1015.94 1017.16 1016.88 1017.78 1017.46 1018.35 1019.16 1019.45 1019.84 1019.95 1020.12 1019.95 1020.06 1019.70 1019.75 1019.94 1019.79 1018.89 1018.22 1017.73 1017.58 1016.94 1016.34 1015.86 1015.21 1014.70 1014.15
1012.53 1012.82 1013.57 1014.17 1014.70 1014.95 1015.48 1015.52 1015.67 1016.67 1016.69 1016.96 1017.34 1017.22 1017.41 1018.09 1017.59 1018.16 1017.78 1018.22 1018.45 1019.78 1020.28 1020.24 1020.39 1020.29 1020.56 1020.61 1020.47 1020.19 1019.89 1019.67 1019.48 1018.96 1018.23 1017.75 1017.20 1016.62 1015.79 1015.36 1014.83 1014.18 1013.64
1014.29 1014.72 1015.21 1015.96 1016.72 1016.98 1017.22 1017.72 1018.04 1017.86 1018.98 1018.70 1018.93 1019.18 1019.33 1019.69 1019.15 1019.57 1019.45 1019.56 1020.17 1020.98 1021.05 1021.20 1021.40 1021.46 1021.34 1020.95 1020.45 1020.05 1019.86 1019.55 1019.16 1018.66 1017.92 1017.39 1016.78 1016.16 1015.74 1015.12 1014.09 1013.73 1012.69
1016.09 1016.90 1017.31 1018.15 1018.42 1018.73 1019.32 1019.16 1019.77 1019.98 1020.64 1020.75 1020.79 1020.96 1021.19 1020.75 1020.58 1021.04 1021.22 1021.23 1021.35 1021.86 1022.19 1022.48 1022.61 1022.57 1022.16 1021.61 1021.08 1020.65 1020.26 1019.91 1019.43 1018.83 1018.21 1017.38 1016.81 1016.14 1015.91 1015.35 1014.03 1012.94 1012.01
1018.75 1019.42 1019.83 1020.16 1020.41 1020.83 1021.08 1020.91 1021.41 1022.05 1022.27 1022.25 1022.42 1022.58 1022.48 1022.39 1022.37 1022.43 1022.73 1022.69 1022.74 1023.09 1023.39 1023.52 1023.55 1023.30 1022.64 1022.00 1021.60 1021.39 1021.11 1020.48 1020.11 1019.77 1019.29 1018.72 1017.90 1017.52 1016.95 1016.31 1015.17 1013.79 1011.38
1020.84 1021.33 1021.73 1021.92 1022.11 1022.38 1022.38 1022.73 1023.30 1024.00 1024.08 1024.19 1024.28 1024.13 1023.84 1023.81 1023.86 1023.93 1024.02 1024.07 1024.20 1024.35 1024.41 1024.48 1024.16 1023.74 1023.15 1022.69 1022.18 1021.94 1021.60 1021.05 1021.07 1021.00 1020.59 1020.22 1019.46 1018.83 1017.80 1016.42 1015.67 1014.79 1013.32
1022.96 1023.08 1023.55 1023.72 1023.43 1023.91 1024.24 1024.86 1025.63 1025.28 1025.31 1025.61 1025.76 1025.69 1025.50 1025.47 1025.20 1024.90 1024.99 1025.29 1025.40 1025.37 1025.57 1025.30 1024.82 1024.46 1023.83 1023.37 1022.95 1022.68 1022.33 1021.89 1021.76 1021.76 1021.54 1021.01 1020.16 1019.28 1018.54 1017.54 1016.33 1015.14 1014.16
1024.95 1025.43 1025.66 1025.50 1025.66 1026.22 1026.36 1026.71 1026.56 1026.57 1026.86 1027.16 1027.39 1027.32 1026.96 1026.34 1026.14 1026.17 1026.20 1026.37 1026.39 1026.28 1026.23 1026.29 1025.85 1025.18 1024.34 1023.81 1023.76 1023.50 1023.03 1022.43 1022.37 1022.11 1022.02 1021.37 1020.40 1019.58 1018.63 1017.45 1016.71 1015.86 1013.55
1027.11 1027.40 1027.50 1027.48 1027.40 1027.56 1027.84 1027.99 1028.14 1028.13 1028.47 1028.53 1028.65 1028.45 1028.16 1027.59 1027.02 1027.03 1027.22 1027.29 1027.05 1027.06 1027.06 1026.94 1026.43 1025.39 1025.00 1024.37 1024.21 1023.94 1023.12 1022.67 1022.63 1022.04 1022.08 1021.55 1020.81 1020.03 1019.24 1018.63 1017.68 1016.59 1015.41
1028.72 1028.88 1028.75 1028.78 1028.92 1029.28 1029.34 1029.37 1029.45 1029.51 1029.54 1029.54 1029.39 1029.30 1029.13 1029.06 1028.52 1028.10 1028.05 1027.96 1027.84 1027.92 1027.76 1027.41 1027.13 1025.98 1025.62 1025.23 1025.02 1024.52 1023.70 1023.28 1023.39 1022.96 1022.46 1021.79 1020.94 1020.16 1019.34 1018.57 1018.16 1017.33 1015.70
1030.19 1030.13 1030.24 1030.33 1030.52 1030.65 1030.66 1030.69 1030.71 1030.58 1030.55 1030.66 1030.58 1030.42 1030.31 1030.24 1029.47 1029.05 1028.77 1028.71 1028.33 1028.44 1028.30 1028.29 1027.92 1026.79 1026.37 1026.07 1025.78 1024.68 1024.10 1024.21 1023.88 1023.38 1022.70 1021.78 1020.94 1020.02 1019.16 1018.50 1017.66 1016.66 1015.67
1031.65 1031.95 1032.08 1032.06 1032.05 1031.99 1031.76 1031.74 1031.72 1031.85 1031.78 1031.85 1031.81 1031.65 1031.32 1030.81 1030.27 1029.86 1029.62 1029.33 1029.05 1028.93 1029.09 1028.98 1028.36 1027.63 1027.13 1026.72 1025.95 1025.08 1025.11 1024.62 1024.00 1023.45 1022.76 1021.72 1020.86 1019.90 1018.98 1017.85 1016.79 1015.84 1014.59
1033.34 1033.61 1033.73 1033.63 1033.56 1033.39 1033.16 1033.01 1032.80 1032.70 1032.88 1032.91 1032.82 1032.54 1032.02 1031.23 1030.78 1030.44 1030.05 1029.95 1029.77 1029.38 1029.78 1029.75 1028.81 1028.32 1027.87 1027.16 1026.84 1026.21 1025.73 1025.22 1024.72 1023.99 1022.85 1021.73 1020.76 1019.59 1018.34 1017.30 1016.13 1015.15 1013.95
1035.00 1035.28 1035.27 1035.18 1035.12 1034.93 1034.54 1033.92 1033.81 1033.70 1033.22 1033.21 1033.27 1033.13 1032.77 1031.85 1030.96 1030.57 1030.25 1030.01 1030.10 1029.73 1030.49 1030.59 1030.03 1029.41 1028.64 1027.98 1027.51 1027.04 1026.46 1025.79 1025.06 1024.12 1023.14 1022.02 1020.60 1019.15 1017.88 1016.87 1015.99 1014.64 1013.45
1036.39 1036.62 1036.78 1036.71 1036.68 1036.53 1036.26 1035.88 1034.97 1034.41 1034.09 1033.73 1033.31 1033.11 1033.32 1032.49 1031.37 1030.98 1030.63 1030.52 1030.68 1030.05 1031.41 1031.34 1030.70 1030.12 1029.55 1028.84 1028.12 1027.34 1026.62 1025.79 1024.87 1024.05 1023.11 1021.86 1020.36 1018.88 1017.60 1016.37 1015.33 1014.41 1012.95
1037.96 1038.14 1038.14 1038.12 1038.17 1038.05 1037.74 1037.37 1037.01 1036.02 1035.07 1034.71 1034.30 1033.77 1033.38 1032.94 1031.81 1031.47 1031.18 1031.12 1031.36 1031.17 1032.09 1031.95 1031.48 1030.68 1029.90 1029.06 1028.14 1027.24 1026.22 1025.52 1024.77 1023.79 1022.74 1021.58 1020.43 1018.89 1017.56 1016.22 1015.18 1014.09 1012.63
1038.91 1039.04 1039.30 1039.52 1039.26 1039.15 1039.05 1038.81 1038.48 1038.32 1037.46 1036.44 1035.54 1034.72 1033.94 1033.22 1032.04 1031.77 1031.53 1032.02 1032.05 1031.93 1032.22 1032.10 1031.26 1030.51 1029.61 1028.72 1027.89 1027.09 1026.20 1025.40 1024.61 1023.57 1022.45 1021.39 1020.27 1018.98 1017.44 1016.45 1015.33 1014.11 1012.73
1040.23 1040.07 1040.08 1040.47 1040.56 1040.49 1040.20 1039.95 1039.52 1039.11 1038.54 1037.59 1036.47 1034.93 1034.75 1033.33 1032.65 1032.63 1032.55 1033.14 1033.00 1032.55 1032.20 1031.79 1031.18 1030.39 1029.55 1028.80 1028.00 1027.25 1026.44 1025.48 1024.58 1023.55 1022.39 1021.40 1020.18 1018.93 1017.65 1016.54 1015.29 1013.95 1012.68
1041.51 1041.46 1041.60 1041.64 1041.53 1041.20 1040.80 1040.42 1039.85 1039.19 1038.58 1037.81 1036.93 1035.86 1034.59 1033.48 1033.39 1033.44 1033.62 1033.56 1033.28 1032.88 1032.37 1031.92 1031.14 1030.27 1029.48 1028.79 1028.06 1027.28 1026.31 1025.35 1024.32 1023.32 1022.24 1021.16 1019.94 1018.73 1017.61 1016.36 1015.09 1013.94 1012.60
1042.47 1042.24 1042.17 1042.04 1041.75 1041.40 1041.04 1040.79 1040.21 1039.66 1039.02 1038.29 1037.26 1036.13 1034.83 1034.98 1034.78 1034.52 1034.08 1033.77 1033.56 1033.21 1032.56 1032.03 1031.22 1030.31 1029.57 1028.81 1027.99 1027.12 1026.26 1025.20 1024.15 1023.11 1022.00 1020.90 1019.78 1018.53 1017.49 1016.42 1015.25 1014.08 1012.81
1043.03 1042.64 1042.31 1042.08 1041.82 1041.49 1041.09 1040.50 1039.96 1039.58 1039.10 1038.44 1037.19 1036.27 1035.19 1035.26 1035.01 1034.63 1034.18 1033.77 1033.28 1033.32 1032.61 1032.08 1031.27 1030.49 1029.74 1028.80 1027.90 1027.08 1026.04 1024.96 1023.87 1022.87 1021.84 1020.84 1019.56 1018.55 1017.58 1016.53 1015.33 1014.10 1012.80
1043.37 1042.83 1042.42 1042.09 1041.80 1041.18 1040.56 1040.18 1039.89 1039.51 1038.98 1038.24 1037.55 1036.86 1036.19 1035.63 1035.19 1034.70 1034.16 1033.58 1032.93 1032.37 1031.98 1031.64 1031.01 1030.16 1029.27 1028.47 1027.72 1026.97 1025.98 1024.82 1023.79 1022.89 1021.81 1020.44 1019.54 1018.59 1017.66 1016.69 1015.48 1014.19 1012.92
1042.96 1042.41 1042.10 1041.85 1041.52 1041.18 1040.79 1040.30 1039.76 1039.23 1038.80 1038.27 1037.70 1037.10 1036.40 1035.78 1035.20 1034.68 1034.11 1033.46 1032.79 1032.20 1031.65 1031.12 1030.47 1029.75 1028.86 1028.02 1027.15 1026.21 1025.37 1024.40 1023.30 1022.03 1021.02 1020.44 1019.71 1018.72 1017.86 1016.80 1015.65 1014.51 1013.24
1042.41 1042.07 1041.87 1041.82 1041.59 1041.22 1040.67 1040.15 1039.72 1039.24 1038.78 1038.30 1037.67 1037.04 1036.44 1035.87 1035.26 1034.68 1034.03 1033.35 1032.70 1032.10 1031.43 1030.81 1029.99 1029.21 1028.37 1027.55 1026.65 1025.64 1024.55 1023.48 1022.06 1021.06 1020.75 1020.45 1019.81 1018.86 1017.99 1017.04 1015.96 1014.66 1013.34
1041.94 1041.73 1041.65 1041.37 1040.98 1040.59 1040.31 1040.11 1039.70 1039.16 1038.61 1038.01 1037.43 1036.90 1036.43 1035.94 1035.26 1034.68 1033.99 1033.34 1032.68 1032.03 1031.39 1030.45 1029.50 1028.68 1027.84 1026.93 1025.93 1024.98 1023.89 1022.74 1020.89 1020.70 1020.66 1020.35 1019.76 1018.95 1018.04 1017.13 1016.02 1015.01 1013.65
Wind_Speed
12 15 17 15 15 15 13 11 12 12 12 13 13 13 13 12 12 11 13 11 14 11 10 9 7 6 5 3 3 1 1 1 5 6 3 3 5 7 11 9 9 9 10
15 18 18 17 16 17 15 14 13 14 13 13 14 13 12 11 11 9 11 8 11 10 7 7 7 5 6 5 2 2 1 3 3 10 7 5 8 9 10 11 10 10 12
16 18 18 18 17 17 17 16 18 17 18 16 15 15 14 12 12 11 12 12 13 9 7 7 7 6 5 4 3 3 2 3 4 5 8 7 7 6 9 9 11 11 9
18 20 20 19 17 17 17 17 18 19 16 18 17 16 15 11 13 11 11 11 11 9 9 9 9 8 7 7 5 5 5 5 5 6 8 8 8 8 7 9 11 10 12
21 19 20 18 17 18 17 19 18 19 18 18 17 17 15 15 12 13 13 13 12 12 11 9 11 15 21 18 9 10 10 8 8 8 9 10 10 10 12 11 13 14 14
20 19 17 17 18 18 17 19 20 18 18 18 19 17 17 13 27 25 15 11 13 12 11 11 9 12 14 19 19 17 13 9 10 9 9 11 14 14 12 13 13 14 17
19 18 17 17 18 17 18 19 19 17 16 18 17 17 18 16 25 23 21 11 11 11 12 11 10 10 13 12 15 17 14 18 17 12 12 12 14 14 15 16 15 14 15
19 19 17 17 18 18 18 17 15 14 16 15 15 16 16 17 26 24 21 11 10 12 12 13 13 13 17 16 14 13 12 11 13 11 11 12 12 14 14 14 15 16 14
19 17 16 16 17 15 16 15 13 13 13 13 13 14 15 16 28 26 17 11 12 12 12 11 13 13 23 24 14 13 13 12 15 21 22 22 22 23 21 12 10 13 15
16 15 15 14 15 15 14 13 12 12 12 10 12 13 16 14 26 27 19 9 11 9 11 12 18 20 24 24 14 13 13 14 15 14 13 15 16 15 21 12 11 12 13
14 14 15 15 15 13 13 11 11 11 11 10 11 11 13 14 16 25 25 12 9 8 8 10 10 25 24 23 21 12 15 17 15 11 10 9 9 10 9 10 12 11 14
13 14 14 14 11 10 12 11 11 10 10 10 10 9 9 11 21 22 24 23 19 8 9 9 11 23 22 20 15 22 23 16 8 8 9 9 10 10 10 11 13 13 12
14 13 12 12 11 11 11 10 9 10 9 9 9 8 8 8 8 20 21 22 19 10 8 15 20 20 20 13 20 22 15 8 9 9 10 11 11 12 13 13 13 14 16
12 11 10 10 10 10 9 9 9 8 8 8 8 8 7 7 8 8 8 8 12 9 10 9 16 17 16 15 9 11 9 8 9 10 11 11 11 10 11 11 12 13 13
11 10 10 9 9 8 8 7 7 9 10 4 2 4 7 7 10 16 16 10 10 12 8 7 7 7 8 7 7 8 8 7 8 9 10 11 11 11 11 10 11 12 12
10 7 6 6 6 7 6 6 15 14 16 17 16 10 6 16 19 20 22 22 21 21 4 5 6 6 7 8 8 8 8 9 8 9 9 10 11 12 13 12 11 11 13
8 6 5 6 6 6 6 6 7 8 10 15 19 16 18 18 19 20 22 21 19 15 1 3 5 6 7 7 8 8 9 9 10 9 10 11 12 12 15 13 13 12 13
7 9 6 4 4 4 4 4 3 4 6 8 11 14 17 18 20 20 22 15 7 6 2 3 7 7 8 8 8 9 9 10 9 10 11 11 12 12 13 13 12 14 13
5 4 4 4 4 3 3 3 2 3 4 5 5 8 9 17 21 19 19 2 4 8 7 7 7 8 8 9 9 9 10 10 10 10 10 11 12 12 12 12 12 17 17
4 6 3 1 2 2 2 3 4 5 5 4 7 8 10 9 11 10 8 6 7 7 8 8 8 7 8 9 9 9 9 10 10 10 11 11 11 11 12 13 12 13 13
1 2 4 3 3 3 2 3 3 3 3 6 5 6 23 8 8 7 8 7 7 8 8 8 9 8 8 9 9 9 9 10 10 10 11 11 12 11 11 11 11 12 12
1 1 1 1 2 3 3 2 3 4 4 5 8 7 21 4 4 7 7 7 7 4 4 6 7 7 8 9 10 10 11 11 11 11 11 12 11 11 10 10 11 11 12
1 2 1 1 2 4 4 3 3 4 5 5 6 7 7 7 7 8 8 8 8 8 6 5 7 8 8 9 8 9 10 11 11 11 12 12 10 10 10 10 11 12 12
2 2 2 3 3 3 3 5 5 5 5 6 6 5 7 7 8 9 8 9 9 9 9 8 7 10 10 11 9 9 9 9 10 12 14 8 9 10 9 10 11 13 12
2 2 2 3 4 4 5 5 5 5 5 5 6 6 7 7 7 8 8 8 9 9 11 10 8 10 13 17 16 17 16 19 17 15 4 5 7 10 9 9 11 12 13
2 2 2 2 3 3 2 4 5 5 6 6 6 6 6 6 7 7 7 8 9 10 11 9 11 14 15 13 14 17 20 20 18 3 3 3 6 8 9 10 13 10 12
Wind_Direction
61 64 54 50 56 57 57 57 67 70 69 70 72 71 75 73 52 69 75 60 73 61 50 51 43 39 44 44 35 41 51 196 272 286 292 304 298 310 298 280 277 276 276
58 66 63 55 53 58 59 55 52 65 63 70 74 80 73 65 89 74 81 75 78 74 72 73 57 36 27 27 1 3 286 259 241 281 288 291 280 276 277 281 283 276 276
64 67 67 62 59 58 56 55 58 49 53 52 51 50 52 42 53 55 63 63 63 57 51 48 35 24 8 339 321 310 289 286 262 276 293 296 290 292 291 288 289 288 280
67 67 65 65 60 60 62 57 58 63 55 55 54 53 49 46 49 48 56 62 63 52 44 43 35 24 12 0 357 352 332 313 292 292 300 304 313 316 298 305 301 297 296
63 62 64 62 64 64 62 65 62 59 55 54 54 52 49 49 47 48 51 54 56 53 41 38 39 25 22 13 6 358 351 347 334 329 322 323 329 333 326 320 307 307 299
61 59 62 63 65 67 66 65 66 59 54 53 52 50 46 49 50 50 50 50 52 48 39 36 34 16 8 10 7 2 359 346 346 346 346 342 341 335 326 320 311 316 311
62 59 59 64 64 59 59 60 59 59 58 55 52 50 52 48 47 50 49 47 51 46 40 27 19 16 11 6 5 4 9 5 10 359 346 338 326 329 325 326 322 313 308
54 55 53 56 62 61 60 61 61 59 56 54 47 46 49 46 44 42 42 41 42 44 35 24 16 10 8 6 4 356 360 355 2 354 339 329 321 331 329 321 320 311 305
55 54 53 55 61 60 60 59 59 61 59 56 50 45 41 45 43 39 35 31 34 33 29 21 7 8 5 4 6 353 350 348 351 343 340 334 335 338 337 333 329 326 312
58 59 59 59 63 62 61 56 55 59 59 57 56 46 40 38 37 37 36 27 24 19 18 11 5 4 1 1 8 348 345 347 345 341 334 331 333 329 334 333 323 314 310
63 62 59 58 59 57 60 55 54 57 56 46 49 45 38 29 28 31 31 23 25 8 8 359 355 353 356 357 2 340 346 348 332 329 325 322 322 322 319 320 313 307 304
60 57 55 54 54 51 54 52 48 45 47 41 37 34 33 26 24 24 23 24 15 11 9 353 340 348 350 351 352 346 352 345 326 323 319 319 319 318 316 308 301 296 286
57 52 49 46 49 50 50 49 49 42 41 35 30 24 12 13 19 16 14 13 6 8 5 353 345 348 348 345 344 346 349 336 335 328 319 314 314 309 307 307 304 298 293
62 55 48 47 44 36 48 44 43 42 39 37 29 18 357 360 2 5 6 6 358 347 9 354 346 345 343 337 330 334 331 329 324 314 312 309 310 310 311 312 310 312 304
59 49 43 43 40 35 33 42 48 33 38 42 33 12 356 352 1 359 355 356 352 333 16 343 331 327 326 326 326 322 317 313 311 310 307 305 306 310 312 315 311 309 305
68 55 43 41 33 34 29 22 34 39 37 33 19 21 7 344 352 352 351 353 348 347 14 322 312 316 322 321 320 318 315 313 314 312 305 306 311 315 315 318 317 315 312
73 54 53 47 41 35 29 31 11 341 10 15 12 360 359 344 346 349 347 355 346 358 336 292 300 316 315 317 318 320 319 318 314 313 312 314 313 314 321 323 320 317 316
65 56 54 36 33 23 15 7 6 11 342 333 346 344 351 341 348 353 351 354 345 355 254 299 323 323 322 322 323 322 319 318 318 318 317 316 315 318 321 320 317 317 313
55 48 45 28 14 9 355 346 328 306 292 281 311 336 336 337 353 357 359 12 325 341 339 334 322 319 320 321 320 317 314 313 313 311 314 315 314 316 316 313 313 314 313
31 40 46 17 341 335 333 342 343 342 330 327 340 337 319 353 352 350 351 342 338 335 332 327 321 320 319 316 313 310 309 312 312 314 314 314 314 317 316 316 315 317 318
17 0 3 359 343 321 331 330 299 304 325 334 313 314 344 359 328 324 330 331 324 325 323 324 320 321 317 312 309 312 311 308 310 312 314 316 314 320 316 312 312 315 314
38 337 302 315 323 344 289 282 332 334 312 319 328 325 344 332 312 322 325 326 323 275 286 298 309 310 306 305 309 311 309 308 311 313 314 314 313 313 311 312 316 318 318
242 256 302 329 318 310 343 327 328 322 319 314 314 317 326 327 326 325 327 324 325 323 310 303 304 306 304 300 300 296 297 299 302 304 304 308 314 310 315 314 317 317 322
183 55 18 338 347 338 334 328 325 320 320 319 312 309 320 323 328 328 327 326 325 323 320 313 307 303 303 307 305 300 293 294 294 298 299 306 305 312 317 317 318 316 315
70 26 14 344 334 323 325 329 323 313 306 299 312 316 319 321 323 323 322 323 322 321 318 313 306 301 304 307 301 299 301 309 303 306 311 292 292 308 313 316 320 319 319
39 4 314 302 309 302 304 313 307 301 306 311 304 306 301 310 311 309 311 315 319 318 309 306 302 299 300 300 298 305 311 316 310 36 305 315 326 328 326 324 325 323 318